> 18, 19 y 20 de Junio / Buenos Aires (Circ.8)
Pos Auto Piloto Marca Vts. Tiempo Dif.
1 17 LUCAS PETRACCHINI RENAULT CLIO 15 23:02.904
2 18 RENZO CERRETTI FIESTA KINETIC 15 23:03.852 0.948
3 116 ANDRES D'AMICO RENAULT CLIO 15 23:09.658 6.754
4 31 JONATHAN BALDINELLI CHEVROLET ONIX 15 23:14.154 11.250
5 1 PABLO VUYOVICH FIESTA KINETIC 15 23:14.625 11.721
6 2 THIAGO MARTINEZ TOYOTA ETIOS 15 23:14.699 11.795
7 9 TOMAS SNIECHOWSKI FIESTA KINETIC 15 23:15.179 12.275
8 4 LUIGI MELLI TOYOTA ETIOS 15 23:19.981 17.077
9 22 JUAN PABLO URRUTIA FIESTA KINETIC 15 23:24.823 21.919
10 3 FRANCISCO COLTRINARI TOYOTA EIOS 15 23:31.342 28.438
11 70 MATIAS CRAVERO TOYOTA ETIOS 15 23:31.704 28.800
12 16 NICOLAS BULICH TOYOTA ETIOS 15 23:33.509 30.605
13 12 SANTIAGO ROBLEDO TOYOTA ETIOS 15 23:34.370 31.466
14 11 ALFREDO LESTARD RENAULT CLIO 15 23:33.587 30.683
15 87 MARCELO MARCHESSE TOYOTA ETIOS 15 23:34.957 32.053
16 100 TOMAS BERGALLO TOYOTA ETIOS 15 23:35.385 32.481
17 74 SEBASTIAN SIGNORE RENAULT CLIO 15 23:44.495 41.591
18 77 ELIAS BATTINI TOYOTA ETIOS 15 23:45.917 43.013
19 99 LUCIANO VIANA TOYOTA ETIOS 15 23:46.295 43.391
20 36 EDUARDO MORENO TOYOTA ETIOS 15 23:46.523 43.619
21 91 EMILIANO URQUIZA TOYOTA ETIOS 15 23:52.522 49.618
22 8 JUAN MANUEL DAMIANI TOYOTA ETIOS 15 23:56.551 53.647
23 66 ALEXIS CANO FIAT PUNTO 15 23:56.591 53.687
24 52 DANIEL LESTARD TOYOTA ETIOS 15 24:06.251 1:03.347
25 37 PABLO COLLAZO FIESTA KINETIC 14 22:01.964 1 Vuelta
26 118 WALTER BESSONE TOYOTA ETIOS 14 22:02.539 1 Vuelta
27 41 JUAN JOSE CONDE FIESTA KINETIC 14 23:49.025 1 Vuelta
28 44 JUAN GARAVAGLIA CHEVROLET ONIX 14 24:18.547 1 Vuelta
29 39 GONZALO ALCAINE TOYOTA ETIOS 13 20:24.744 2 Vueltas
30 32 FACUNDO VACCALLUZZO RENAULT CLIO 13 20:44.883 2 Vueltas
NO CLASIFICADOS
14 JUAN KREITZ NISSAN MARCH 11 17:15.576 4 Vueltas
20 RUBEN LOIACONO TOYOTA ETIOS 11 17:59.360 4 Vueltas
27 CRISTOBAL RIESTRA FIESTA KIENTIC 8 12:32.992 7 Vueltas
113 LUIS BESSONE TOYOTA ETIOS 8 12:32.992 7 Vueltas
19 JUAN BENEDETTI TOYOTA ETIOS 7 10:44.827 8 Vueltas
95 PABLO MELILLO TOYOTA ETIOS 7 12:59.325 8 Vueltas
15 MARTIN BLASIG TOYOTA ETIOS 6 9:29.974 9 Vueltas
57 PABLO M. GRIPPO TOYOTA ETIOS 5 8:44.131 10 Vueltas
88 JORGE POSSIEL NISSAN MARCH 2 4:02.659 13 Vueltas
68 CRISTIAN GARBIGLIA NISAN MARCH

NO LARGO AUTO 111 (ETCHEVESTE). AUTO 8 (DAMIANI) PENALIZACION BOX POR FALSA LARGADA.
AUTO 20 (LOIACONO) PENALIZACION BOX POR FALSA LARGADA.
AUTO N° 74 APERCIBIDO POR M.PELIGROSA AL AUTO N°12. AUTO N° 40 EXCLUIDO POR M.PELIGROSA AL AUTO N°88
AUTO N°33 EXCLUIDO MAS 3 GRILLAS PROX. EVENTO POR M.PELIGROSA AL AUTO N°14
AUTO N°11 RECARGO DE PUESTO POR M.PELIGROSA AL AUTO N°12.

Márgen de victoria 0.948 Velocidad media
130,343 Mejor t° de vuelta 1:31.477 Mejor Vel. 131,364 Mejor vuelta para 18 – RENZO CERRETTI

Pos Auto Piloto Marca Vts. Tiempo Dif.
1 116 ANDRES D'AMICO RENAULT CLIO 6 9:13.536
2 19 JUAN BENEDETTI TOYOTA ETIOS 6 9:13.729 0.193
3 9 TOMAS SNIECHOWSKI FIESTA KINETIC 6 9:15.178 1,642
4 27 CRISTOBAL RIESTRA FIESTA KIENTIC 6 9:19.109 5,573
5 20 RUBEN LOIACONO TOYOTA ETIOS 6 9:25.907 12,371
6 32 FACUNDO VACCALLUZZO RENAULT CLIO 6 9:26.268 12,732
7 70 MATIAS CRAVERO TOYOTA ETIOS 6 9:26.624 13,088
8 74 SEBASTIAN SIGNORE RENAULT CLIO 6 9:27.487 13,951
9 11 ALFREDO LESTARD RENAULT CLIO 6 9:28.663 15,127
10 52 DANIEL LESTARD TOYOTA ETIOS 6 9:34.306 20,770
11 38 LUCAS BARBALARGA RENAULT CLIO 6 9:35.094 21,558
12 37 PABLO COLLAZO FIESTA KINETIC 6 9:36.795 23,259
13 111 YAIR ETCHEVESTE RENAULT CLIO 6 9:42.267 28,731
14 78 RAMIRO ALCAINE RENAULT CLIO 5 7:43.987 1 Vuelta
15 36 EDUARDO MORENO TOYOTA ETIOS 5 7:51.273 1 Vuelta
35 MARTIN FIERROS TOYOTA ETIOS

AUTO 37 (COLLAZO) RECARGADO CON PUESTOS POR MANIOBRA PELIGROSA AL AUTO 38 (BARBALARGA).

Márgen de victoria 0.193 Velocidad media 130,255 Mejor t° de vuelta 1:31.266 Mejor Vel. 131,668 Mejor vuelta para 19 – JUAN BENEDETTI

Pos Auto Piloto Marca Vts. Tiempo Dif.
1 18 RENZO CERRETTI FIESTA KINETIC 6 10:17.929
2 16 NICOLAS BULICH TOYOTA ETIOS 6 10:18.568 0.639
3 1 PABLO VUYOVICH FIESTA KINETIC 6 10:18.598 0.669
4 33 PABLO MALIZIA TOYOTA ETIOS 6 10:20.545 2,616
5 22 JUAN PABLO URRUTIA FIESTA KINETIC 6 10:20.801 2,872
6 40 MARCELO GARCIA RENAULT CLIO 6 10:22.791 4,862
7 113 LUIS BESSONE TOYOTA ETIOS 6 10:22.984 5,055
8 15 MARTIN BLASIG TOYOTA ETIOS 6 10:23.167 5,238
9 3 FRANCISCO COLTRINARI TOYOTA EIOS 6 10:23.207 5,278
10 100 TOMAS BERGALLO TOYOTA ETIOS 6 10:23.210 5,281
11 41 JUAN JOSE CONDE FIESTA KINETIC 6 10:24.100 6,171
12 77 ELIAS BATTINI TOYOTA ETIOS 6 10:25.049 7,120
13 87 MARCELO MARCHESSE TOYOTA ETIOS 6 10:25.053 7,124
14 66 ALEXIS CANO FIAT PUNTO 6 10:26.570 8,641
15 60 MARTIN ARANZABE TOYOTA ETIOS 6 10:28.624 10,695
91 EMILIANO URQUIZA TOYOTA ETIOS 2 3:10.092 4 Vueltas

AUTO 100 (BERGALLO) RECARGADO CON 3 PUESTOS POR MANIOBRA PELIGROSA AL AUTO 3 (COLTRINARI).
AUTO 113 (BESSONE L) RECARGADO CON UN PUESTO POR MANIOBRA PELIGROSA AL AUTO 100 (BERGALLO).

Márgen de victoria 0.639 Velocidad media 116,681 Mejor t° de vuelta 1:31.130 Mejor Vel. 131,864 Mejor vuelta para 1 – PABLO VUYOVICH

Pos Auto Piloto Marca Vts. Tiempo Dif.
1 17 LUCAS PETRACCHINI RENAULT CLIO 6 9:10.564
2 8 JUAN MANUEL DAMIANI TOYOTA ETIOS 6 3,693 9:14.257
3 2 THIAGO MARTINEZ TOYOTA ETIOS 6 4,887 9:15.451
4 31 JONATHAN BALDINELLI CHEVROLET ONIX 6 5,910 9:16.474
5 4 LUIGI MELLI TOYOTA ETIOS 6 6,406 9:16.970
6 88 JORGE POSSIEL NISSAN MARCH 6 6,945 9:17.509
7 39 GONZALO ALCAINE TOYOTA ETIOS 6 7,782 9:18.346
8 14 JUAN KREITZ NISSAN MARCH 6 8,121 9:18.685
9 12 SANTIAGO ROBLEDO TOYOTA ETIOS 6 8,262 9:18.826
10 6 JOAQUIN VOLPE FIESTA KINETIC 6 10,768 9:21.332
11 99 LUCIANO VIANA TOYOTA ETIOS 6 13,646 9:24.210
12 118 WALTER BESSONE TOYOTA ETIOS 6 14,079 9:24.643
13 68 CRISTIAN GARBIGLIA NISAN MARCH 6 15,684 9:26.248
14 57 PABLO M. GRIPPO TOYOTA ETIOS 6 21,938 9:32.502
15 95 PABLO MELILLO TOYOTA ETIOS 6 25,088 9:35.652
16 44 JUAN GARAVAGLIA CHEVROLET ONIX 6 25,991 9:36.555

Márgen de victoria 3.693 Velocidad media 130,958 Mejor t° de vuelta 1:31.112 Mejor Vel. 131,890 Mejor vuelta para 17 – LUCAS PETRACCHINI

Pos Auto Piloto Marca Tiempo Dif.
1 8 JUAN MANUEL DAMIANI TOYOTA ETIOS 1:30.098
2 18 RENZO CERRETTI FIESTA KINETIC 1:30.424 0.326
3 116 ANDRES D'AMICO RENAULT CLIO 1:30.425 0.327
4 17 LUCAS PETRACCHINI RENAULT CLIO 1:30.435 0.337
5 16 NICOLAS BULICH TOYOTA ETIOS 1:30.437 0.339
6 9 TOMAS SNIECHOWSKI FIESTA KINETIC 1:30.454 0.356
7 31 JONATHAN BALDINELLI TOYOTA ETIOS 1:30.569 0.471
8 22 JUAN PABLO URRUTIA FIESTA KINETIC 1:30.599 0.501
9 19 JUAN BENEDETTI TOYOTA ETIOS 1:30.606 0.508
10 4 LUIGI MELLI TOYOTA ETIOS 1:30.664 0.566
11 1 PABLO VUYOVICH FIESTA KINETIC 1:30.740 0.642
12 11 ALFREDO LESTARD RENAULT CLIO 1:30.914 0.816
13 2 THIAGO MARTINEZ TOYOTA ETIOS 1:30.916 0.818
14 3 FRANCISCO COLTRINARI TOYOTA EIOS 1:30.958 0.860
15 27 CRISTOBAL RIESTRA FIESTA KIENTIC 1:30.981 0.883
16 88 JORGE POSSIEL NISSAN MARCH 1:31.067 0.969
17 33 PABLO MALIZIA TOYOTA ETIOS 1:31.071 0.973
18 78 RAMIRO ALCAINE RENAULT CLIO 1:31.160 1,062
19 39 GONZALO ALCAINE TOYOTA ETIOS 1:31.188 1,090
20 100 TOMAS BERGALLO TOYOTA ETIOS 1:31.258 1,160
21 70 MATIAS CRAVERO TOYOTA ETIOS 1:31.286 1,188
22 118 WALTER BESSONE TOYOTA ETIOS 1:31.335 1,237
23 113 LUIS BESSONE TOYOTA ETIOS 1:31.387 1,289
24 20 RUBEN LOIACONO TOYOTA ETIOS 1:31.484 1,386
25 14 JUAN KREITZ NISSAN MARCH 1:31.553 1,455
26 40 MARCELO GARCIA RENAULT CLIO 1:31.755 1,657
27 35 MARTIN FIERROS TOYOTA ETIOS 1:31.845 1,747
28 12 SANTIAGO ROBLEDO TOYOTA ETIOS 1:31.866 1,768
29 87 MARCELO MARCHESSE TOYOTA ETIOS 1:31.883 1,785
30 38 LUCAS BARBALARGA RENAULT CLIO 1:31.919 1,821
31 68 CRISTIAN GARBIGLIA FIESTA KINETIC 1:32.081 1,983
32 91 EMILIANO URQUIZA TOYOTA ETIOS 1:32.090 1,992
33 36 EDUARDO MORENO TOYOTA ETIOS 1:32.201 2,103
34 6 JOAQUIN VOLPE FIESTA KINETIC 1:32.466 2,368
35 15 MARTIN BLASIG TOYOTA ETIOS 1:32.526 2,428
36 32 FACUNDO VACCALLUZZO RENAULT CLIO 1:32.541 2,443
37 99 LUCIANO VIANA TOYOTA ETIOS 1:32.707 2,609
38 77 ELIAS BATTINI TOYOTA ETIOS 1:32.737 2,639
39 111 YAIR ETCHEVESTE RENAULT CLIO 1:32.834 2,736
40 57 PABLO M. GRIPPO TOYOTA ETIOS 1:33.080 2,982
41 66 ALEXIS CANO FIAT PUNTO 1:33.414 3,316
42 37 PABLO COLLAZO FIESTA KINETIC 1:33.472 3,374
43 44 JUAN GARAVAGLIA CHEVROLET ONIX 1:34.020 3,922
44 60 MARTIN ARANZABE TOYOTA ETIOS 1:35.031 4,933
45 52 DANIEL LESTARD TOYOTA ETIOS 1:54.175 24,077

SIN TIEMPO AUTO 95 (MELILLO).
AUTOS 41 (CONDE) Y 74 (SIGNORE) RETIRO DE TIEMPOS POR NO RESPETAR ARTICULO 10.3 REG. DE CAMPEONATO.

Pos Auto Piloto Marca Tiempo Dif.
1 19 JUAN BENEDETTI TOYOTA ETIOS 1:30.172
2 116 ANDRES D'AMICO RENAULT CLIO 1:30.234 0.062
3 17 LUCAS PETRACCHINI RENAULT CLIO 1:30.534 0.362
4 9 TOMAS SNIECHOWSKI FIESTA KINETIC 1:30.554 0.382
5 8 JUAN MANUEL DAMIANI TOYOTA ETIOS 1:30.780 0.608
6 1 PABLO VUYOVICH FIESTA KINETIC 1:30.786 0.614
7 2 THIAGO MARTINEZ TOYOTA ETIOS 1:30.819 0.647
8 16 NICOLAS BULICH TOYOTA ETIOS 1:30.905 0.733
9 3 FRANCISCO COLTRINARI TOYOTA EIOS 1:31.031 0.859
10 15 MARTIN BLASIG TOYOTA ETIOS 1:31.038 0.866
11 18 RENZO CERRETTI FIESTA KINETIC 1:31.047 0.875
12 78 RAMIRO ALCAINE RENAULT CLIO 1:31.103 0.931
13 31 JONATHAN BALDINELLI TOYOTA ETIOS 1:31.140 0.968
14 4 LUIGI MELLI TOYOTA ETIOS 1:31.168 0.996
15 113 LUIS BESSONE TOYOTA ETIOS 1:31.208 1,036
16 11 ALFREDO LESTARD RENAULT CLIO 1:31.245 1,073
17 38 LUCAS BARBALARGA RENAULT CLIO 1:31.267 1,095
18 6 JOAQUIN VOLPE FIESTA KINETIC 1:31.272 1,100
19 88 JORGE POSSIEL NISSAN MARCH 1:31.297 1,125
20 27 CRISTOBAL RIESTRA FIESTA KIENTIC 1:31.308 1,136
21 39 GONZALO ALCAINE TOYOTA ETIOS 1:31.344 1,172
22 33 PABLO MALIZIA TOYOTA ETIOS 1:31.366 1,194
23 12 SANTIAGO ROBLEDO TOYOTA ETIOS 1:31.368 1,196
24 41 JUAN JOSE CONDE FIESTA KINETIC 1:31.481 1,309
25 87 MARCELO MARCHESSE TOYOTA ETIOS 1:31.488 1,316
26 100 TOMAS BERGALLO TOYOTA ETIOS 1:31.496 1,324
27 14 JUAN KREITZ NISSAN MARCH 1:31.532 1,360
28 22 JUAN PABLO URRUTIA FIESTA KINETIC 1:31.721 1,549
29 70 MATIAS CRAVERO TOYOTA ETIOS 1:31.923 1,751
30 32 FACUNDO VACCALLUZZO RENAULT CLIO 1:32.043 1,871
31 118 WALTER BESSONE TOYOTA ETIOS 1:32.076 1,904
32 20 RUBEN LOIACONO TOYOTA ETIOS 1:32.094 1,922
33 36 EDUARDO MORENO TOYOTA ETIOS 1:32.185 2,013
34 77 ELIAS BATTINI TOYOTA ETIOS 1:32.282 2,110
35 68 CRISTIAN GARBIGLIA FIESTA KINETIC 1:32.321 2,149
36 74 SEBASTIAN SIGNORE RENAULT CLIO 1:32.358 2,186
37 91 EMILIANO URQUIZA TOYOTA ETIOS 1:32.532 2,360
38 35 MARTIN FIERROS TOYOTA ETIOS 1:32.544 2,372
39 95 PABLO MELILLO TOYOTA ETIOS 1:32.582 2,410
40 99 LUCIANO VIANA TOYOTA ETIOS 1:32.652 2,480
41 111 YAIR ETCHEVESTE RENAULT CLIO 1:32.680 2,508
42 57 PABLO M. GRIPPO TOYOTA ETIOS 1:32.738 2,566
43 40 MARCELO GARCIA RENAULT CLIO 1:33.304 3,132
44 66 ALEXIS CANO FIAT PUNTO 1:33.527 3,355
45 44 JUAN GARAVAGLIA CHEVROLET ONIX 1:34.318 4,146
46 52 DANIEL LESTARD TOYOTA ETIOS 1:34.620 4,448
47 60 MARTIN ARANZABE TOYOTA ETIOS 1:35.797 5,625
48 37 PABLO COLLAZO FIESTA KINETIC 2:56.999 1:26.827

Pos Auto Piloto Marca Tiempo Dif.
1 19 JUAN BENEDETTI TOYOTA ETIOS 1:30.172
2 116 ANDRES D'AMICO RENAULT CLIO 1:30.234 0.062
3 17 LUCAS PETRACCHINI RENAULT CLIO 1:30.534 0.362
4 9 TOMAS SNIECHOWSKI FIESTA KINETIC 1:30.554 0.382
5 8 JUAN MANUEL DAMIANI TOYOTA ETIOS 1:30.780 0.608
6 1 PABLO VUYOVICH FIESTA KINETIC 1:30.786 0.614
7 2 THIAGO MARTINEZ TOYOTA ETIOS 1:30.819 0.647
8 16 NICOLAS BULICH TOYOTA ETIOS 1:30.905 0.733
9 3 FRANCISCO COLTRINARI TOYOTA EIOS 1:31.031 0.859
10 15 MARTIN BLASIG TOYOTA ETIOS 1:31.038 0.866
11 18 RENZO CERRETTI FIESTA KINETIC 1:31.047 0.875
12 31 JONATHAN BALDINELLI TOYOTA ETIOS 1:31.140 0.968
13 4 LUIGI MELLI TOYOTA ETIOS 1:31.168 0.996
14 78 RAMIRO ALCAINE RENAULT CLIO 1:31.191 1,019
15 113 LUIS BESSONE TOYOTA ETIOS 1:31.208 1,036
16 11 ALFREDO LESTARD RENAULT CLIO 1:31.245 1,073
17 6 JOAQUIN VOLPE FIESTA KINETIC 1:31.272 1,100
18 88 JORGE POSSIEL NISSAN MARCH 1:31.297 1,125
19 27 CRISTOBAL RIESTRA FIESTA KIENTIC 1:31.308 1,136
20 39 GONZALO ALCAINE TOYOTA ETIOS 1:31.344 1,172
21 12 SANTIAGO ROBLEDO TOYOTA ETIOS 1:31.368 1,196
22 41 JUAN JOSE CONDE FIESTA KINETIC 1:31.481 1,309
23 87 MARCELO MARCHESSE TOYOTA ETIOS 1:31.488 1,316
24 33 PABLO MALIZIA TOYOTA ETIOS 1:31.512 1,340
25 14 JUAN KREITZ NISSAN MARCH 1:31.532 1,360
26 100 TOMAS BERGALLO TOYOTA ETIOS 1:31.704 1,532
27 22 JUAN PABLO URRUTIA FIESTA KINETIC 1:32.090 1,918
28 20 RUBEN LOIACONO TOYOTA ETIOS 1:32.094 1,922
29 36 EDUARDO MORENO TOYOTA ETIOS 1:32.185 2,013
30 77 ELIAS BATTINI TOYOTA ETIOS 1:32.282 2,110
31 68 CRISTIAN GARBIGLIA FIESTA KINETIC 1:32.321 2,149
32 74 SEBASTIAN SIGNORE RENAULT CLIO 1:32.358 2,186
33 70 MATIAS CRAVERO TOYOTA ETIOS 1:32.506 2,334
34 91 EMILIANO URQUIZA TOYOTA ETIOS 1:32.532 2,360
35 35 MARTIN FIERROS TOYOTA ETIOS 1:32.544 2,372
36 95 PABLO MELILLO TOYOTA ETIOS 1:32.582 2,410
37 118 WALTER BESSONE TOYOTA ETIOS 1:32.619 2,447
38 99 LUCIANO VIANA TOYOTA ETIOS 1:32.652 2,480
39 111 YAIR ETCHEVESTE RENAULT CLIO 1:32.680 2,508
40 57 PABLO M. GRIPPO TOYOTA ETIOS 1:32.738 2,566
41 32 FACUNDO VACCALLUZZO RENAULT CLIO 1:33.445 3,273
42 66 ALEXIS CANO FIAT PUNTO 1:33.527 3,355
43 52 DANIEL LESTARD TOYOTA ETIOS 1:35.352 5,180
44 60 MARTIN ARANZABE TOYOTA ETIOS 1:35.797 5,625
45 44 JUAN GARAVAGLIA CHEVROLET ONIX 1:45.618 15,446
46 38 LUCAS BARBALARGA RENAULT CLIO 1:50.091 19,919
47 40 MARCELO GARCIA RENAULT CLIO 1:51.318 21,146
48 37 PABLO COLLAZO FIESTA KINETIC 6:27.632 4:57.460

AUTO 3 (COLTRINARI) RETIRO DE UNA VUELTA POR NO REALIZAR CIRCUITO.

Pos Auto Piloto Marca Tiempo Dif.
1 9 TOMAS SNIECHOWSKI FIESTA KINETIC 1:31.017
2 2 THIAGO MARTINEZ TOYOTA ETIOS 1:31.064 0.047
3 78 RAMIRO ALCAINE RENAULT CLIO 1:31.103 0.086
4 116 ANDRES D'AMICO RENAULT CLIO 1:31.122 0.105
5 18 RENZO CERRETTI FIESTA KINETIC 1:31.201 0.184
6 31 JONATHAN BALDINELLI TOYOTA ETIOS 1:31.210 0.193
7 38 LUCAS BARBALARGA RENAULT CLIO 1:31.267 0.250
8 1 PABLO VUYOVICH FIESTA KINETIC 1:31.294 0.277
9 33 PABLO MALIZIA TOYOTA ETIOS 1:31.366 0.349
10 17 LUCAS PETRACCHINI RENAULT CLIO 1:31.446 0.429
11 100 TOMAS BERGALLO TOYOTA ETIOS 1:31.496 0.479
12 8 JUAN MANUEL DAMIANI TOYOTA ETIOS 1:31.681 0.664
13 22 JUAN PABLO URRUTIA FIESTA KINETIC 1:31.721 0.704
14 16 NICOLAS BULICH TOYOTA ETIOS 1:31.722 0.705
15 88 JORGE POSSIEL NISSAN MARCH 1:31.731 0.714
16 39 GONZALO ALCAINE TOYOTA ETIOS 1:31.758 0.741
17 3 FRANCISCO COLTRINARI TOYOTA EIOS 1:31.774 0.757
18 11 ALFREDO LESTARD RENAULT CLIO 1:31.829 0.812
19 27 CRISTOBAL RIESTRA FIESTA KIENTIC 1:31.841 0.824
20 12 SANTIAGO ROBLEDO TOYOTA ETIOS 1:31.894 0.877
21 70 MATIAS CRAVERO TOYOTA ETIOS 1:31.923 0.906
22 113 LUIS BESSONE TOYOTA ETIOS 1:31.973 0.956
23 14 JUAN KREITZ NISSAN MARCH 1:32.033 1,016
24 32 FACUNDO VACCALLUZZO RENAULT CLIO 1:32.043 1,026
25 118 WALTER BESSONE TOYOTA ETIOS 1:32.076 1,059
26 4 LUIGI MELLI TOYOTA ETIOS 1:32.088 1,071
27 6 JOAQUIN VOLPE FIESTA KINETIC 1:32.124 1,107
28 20 RUBEN LOIACONO TOYOTA ETIOS 1:32.347 1,330
29 35 MARTIN FIERROS TOYOTA ETIOS 1:32.634 1,617
30 68 CRISTIAN GARBIGLIA FIESTA KINETIC 1:32.681 1,664
31 77 ELIAS BATTINI TOYOTA ETIOS 1:32.823 1,806
32 36 EDUARDO MORENO TOYOTA ETIOS 1:32.854 1,837
33 41 JUAN JOSE CONDE FIESTA KINETIC 1:33.112 2,095
34 95 PABLO MELILLO TOYOTA ETIOS 1:33.167 2,150
35 111 YAIR ETCHEVESTE RENAULT CLIO 1:33.175 2,158
36 40 MARCELO GARCIA RENAULT CLIO 1:33.304 2,287
37 74 SEBASTIAN SIGNORE RENAULT CLIO 1:33.354 2,337
38 99 LUCIANO VIANA TOYOTA ETIOS 1:33.446 2,429
39 91 EMILIANO URQUIZA TOYOTA ETIOS 1:33.528 2,511
40 57 PABLO M. GRIPPO TOYOTA ETIOS 1:33.745 2,728
41 44 JUAN GARAVAGLIA CHEVROLET ONIX 1:34.318 3,301
42 66 ALEXIS CANO FIAT PUNTO 1:34.379 3,362
43 52 DANIEL LESTARD TOYOTA ETIOS 1:34.620 3,603
44 15 MARTIN BLASIG TOYOTA ETIOS 1:39.546 8,529
45 87 MARCELO MARCHESSE TOYOTA ETIOS 1:41.285 10,268
46 19 JUAN BENEDETTI TOYOTA ETIOS 1:51.364 20,347
47 37 PABLO COLLAZO FIESTA KINETIC 2:56.999 1:25.982
48 60 MARTIN ARANZABE TOYOTA ETIOS 21:20.130 19:49.113

AUTO 2 (MARTINEZ T) RETIRO DE UNA VUELTA POR NO REALIZAR CIRCUITO.